SKY MEXICO-1

Last updated on Tue Jul 01 2025 00:02:46 GMT+0000 (Coordinated Universal Time)

1 40664U 15026B 25181.55224219 -.00000235 00000+0 00000+0 0 9990 2 40664 0.0129 14.2069 0001975 87.7605 296.9280 1.00271825 36923
UTC large
Height (km)
Speed (km/s)
/
Latitude / Longitude
Inclination (degrees)
Orbital Period (minutes)
Azimuth
Elevation
Range (km)
Doppler Factor

Next 0 passes for location: London (51.5072 / 0.1276)

Sorry there are no passes over London.